Location: ???????
(60.4260°N, 46.9069°E)
Time: 08:02:02
(UTC+00:00)

COSMOS 2441 - Pass Details

Date: 30 March 2020
Orbit: 708 x 731 km, 98.0° (Epoch: 25 May)

Event Time Altitude Azimuth Distance (km) Brightness Sun altitude
Rises 01:08:57 0° 17° (NNE) 3,130 8.4 -9.5°
Reaches altitude 10° 01:11:14 10° 18° (NNE) 2,204 7.5 -9.2°
Maximum altitude 01:16:05 85° 107° (ESE) 722 4.4 -8.7°
Drops below altitude 10° 01:20:53 10° 196° (SSW) 2,184 6.5 -8.1°
Sets 01:23:08 0° 197° (SSW) 3,099 7.3 -7.9°
